StationID,Date,MaxTemp,MinTemp,Precipitation,Snowfall,SnowDepth
"CA001125852","1990-08-01",89.60,60.98,0.00,0.00,
"CA001125852","1990-08-02",87.80,65.30,0.00,0.00,
"CA001125852","1990-08-03",93.20,59.54,0.00,0.00,
"CA001125852","1990-08-04",98.42,57.56,0.00,0.00,
"CA001125852","1990-08-05",102.02,58.46,0.00,0.00,
"CA001125852","1990-08-06",95.54,60.08,0.00,0.00,
"CA001125852","1990-08-07",97.34,64.76,0.00,0.00,
"CA001125852","1990-08-08",87.26,56.66,0.00,0.00,
"CA001125852","1990-08-09",100.76,54.14,0.00,0.00,
"CA001125852","1990-08-10",96.98,59.72,0.00,0.00,
"CA001125852","1990-08-11",95.18,67.64,12.00,,
"CA001125852","1990-08-12",99.86,60.80,0.00,0.00,
"CA001125852","1990-08-13",100.22,61.52,0.00,0.00,
"CA001125852","1990-08-14",95.36,69.62,0.00,0.00,
"CA001125852","1990-08-15",92.66,58.82,0.00,0.00,
"CA001125852","1990-08-16",84.20,63.32,0.00,0.00,
"CA001125852","1990-08-17",87.44,57.56,4.00,,
"CA001125852","1990-08-18",84.20,58.82,108.00,,
"CA001125852","1990-08-19",82.58,64.22,2.00,,
"CA001125852","1990-08-20",84.56,62.78,0.00,0.00,
"CA001125852","1990-08-21",76.28,62.42,176.00,,
"CA001125852","1990-08-22",82.94,62.24,14.00,,
"CA001125852","1990-08-23",77.90,53.24,0.00,0.00,
"CA001125852","1990-08-24",75.92,54.32,8.00,,
"CA001125852","1990-08-25",71.60,53.24,26.00,,
"CA001125852","1990-08-26",75.02,49.28,0.00,0.00,
"CA001125852","1990-08-27",82.22,47.30,0.00,0.00,
"CA001125852","1990-08-28",89.96,49.82,0.00,0.00,
"CA001125852","1990-08-29",80.96,54.50,42.00,,
"CA001125852","1990-08-30",74.66,57.38,12.00,,
"CA001125852","1990-08-31",79.70,56.12,0.00,0.00,
"CA001125852","1990-09-01",72.86,50.90,0.00,0.00,
"CA001125852","1990-09-02",78.08,60.44,0.00,0.00,
"CA001125852","1990-09-03",78.80,,0.00,0.00,
"CA001125852","1990-09-04",81.86,52.70,0.00,0.00,
"CA001125852","1990-09-05",88.16,,0.00,0.00,
"CA001125852","1990-09-06",,,0.00,0.00,
"CA001125852","1990-09-07",,,0.00,0.00,
"CA001125852","1990-09-08",,,0.00,0.00,
"CA001125852","1990-09-09",,,0.00,0.00,
"CA001125852","1990-09-10",93.02,50.00,0.00,0.00,
"CA001125852","1990-09-11",92.48,49.46,0.00,0.00,
"CA001125852","1990-09-12",80.60,49.82,0.00,0.00,
"CA001125852","1990-09-13",81.32,46.94,0.00,0.00,
"CA001125852","1990-09-14",82.40,44.60,0.00,0.00,
"CA001125852","1990-09-15",74.48,46.40,0.00,0.00,
"CA001125852","1990-09-16",68.90,55.76,0.00,0.00,
"CA001125852","1990-09-17",80.78,47.48,0.00,0.00,
"CA001125852","1990-09-18",83.84,44.78,0.00,0.00,
"CA001125852","1990-09-19",76.82,53.78,0.00,0.00,
"CA001125852","1990-09-20",78.08,53.42,0.00,0.00,
"CA001125852","1990-09-21",83.66,45.50,0.00,0.00,
"CA001125852","1990-09-22",86.54,49.28,0.00,0.00,
"CA001125852","1990-09-23",88.52,46.58,0.00,0.00,
"CA001125852","1990-09-24",89.06,45.50,0.00,0.00,
"CA001125852","1990-09-25",84.56,44.24,0.00,0.00,
"CA001125852","1990-09-26",79.16,55.22,0.00,0.00,
"CA001125852","1990-09-27",76.28,45.68,0.00,0.00,
"CA001125852","1990-09-28",75.20,39.74,0.00,0.00,
"CA001125852","1990-09-29",81.86,50.72,0.00,0.00,
"CA001125852","1990-09-30",73.22,45.14,0.00,0.00,
"CA001125852","1990-10-01",70.88,47.84,0.00,0.00,
"CA001125852","1990-10-02",63.32,46.94,0.00,0.00,
"CA001125852","1990-10-03",59.72,47.48,0.00,0.00,
"CA001125852","1990-10-04",75.56,47.48,2.00,,
"CA001125852","1990-10-05",58.82,40.10,0.00,0.00,
"CA001125852","1990-10-06",57.38,29.84,0.00,0.00,
"CA001125852","1990-10-07",60.98,28.22,0.00,0.00,
"CA001125852","1990-10-08",65.66,32.36,0.00,0.00,
"CA001125852","1990-10-09",60.44,44.60,0.00,0.00,
"CA001125852","1990-10-10",57.92,33.62,0.00,0.00,
"CA001125852","1990-10-11",54.86,26.78,0.00,0.00,
"CA001125852","1990-10-12",65.48,34.70,0.00,0.00,
"CA001125852","1990-10-13",60.44,37.58,0.00,0.00,
"CA001125852","1990-10-14",55.22,39.02,28.00,,
"CA001125852","1990-10-15",48.56,42.62,6.00,,
"CA001125852","1990-10-16",57.02,33.08,0.00,0.00,
"CA001125852","1990-10-17",48.74,30.56,0.00,0.00,
"CA001125852","1990-10-18",59.00,40.82,2.00,,
"CA001125852","1990-10-19",60.26,31.46,0.00,0.00,
"CA001125852","1990-10-20",55.04,25.34,0.00,0.00,
"CA001125852","1990-10-21",50.36,32.90,0.00,0.00,
"CA001125852","1990-10-22",59.36,32.18,0.00,0.00,
"CA001125852","1990-10-23",57.56,29.66,0.00,0.00,
"CA001125852","1990-10-24",62.06,42.44,0.00,0.00,
"CA001125852","1990-10-25",62.06,43.70,0.00,0.00,
"CA001125852","1990-10-26",62.42,40.46,0.00,0.00,
"CA001125852","1990-10-27",60.26,43.88,0.00,0.00,
"CA001125852","1990-10-28",62.60,36.68,0.00,0.00,
"CA001125852","1990-10-29",57.20,29.66,2.00,,
"CA001125852","1990-10-30",55.58,48.20,0.00,0.00,
"CA001125852","1990-10-31",51.44,30.74,32.00,,
"CA001125852","1990-11-01",51.98,26.78,0.00,0.00,
"CA001125852","1990-11-02",46.58,21.92,0.00,0.00,
"CA001125852","1990-11-03",47.48,35.24,2.00,,
"CA001125852","1990-11-04",44.42,39.02,6.00,,
"CA001125852","1990-11-05",50.90,36.32,0.00,0.00,
"CA001125852","1990-11-06",46.94,22.46,0.00,0.00,
"CA001125852","1990-11-07",43.70,34.52,6.00,,
"CA001125852","1990-11-08",50.00,31.82,0.00,0.00,
"CA001125852","1990-11-09",58.46,35.60,0.00,0.00,
"CA001125852","1990-11-10",69.44,48.02,0.00,0.00,
"CA001125852","1990-11-11",63.14,50.18,0.00,0.00,
"CA001125852","1990-11-12",59.00,47.66,0.00,0.00,
"CA001125852","1990-11-13",57.56,42.80,0.00,0.00,
"CA001125852","1990-11-14",49.64,26.42,0.00,0.00,
"CA001125852","1990-11-15",50.18,30.02,0.00,0.00,
"CA001125852","1990-11-16",53.96,42.98,0.00,0.00,
"CA001125852","1990-11-17",51.44,27.50,2.00,,
"CA001125852","1990-11-18",43.52,22.10,0.00,0.00,
"CA001125852","1990-11-19",44.42,35.42,6.00,,
"CA001125852","1990-11-20",42.62,30.02,18.00,,
"CA001125852","1990-11-21",39.38,27.32,12.00,,
"CA001125852","1990-11-22",56.12,36.68,0.00,0.00,
"CA001125852","1990-11-23",62.24,38.84,0.00,0.00,
"CA001125852","1990-11-24",56.12,33.62,84.00,,
"CA001125852","1990-11-25",42.80,32.72,2.00,,
"CA001125852","1990-11-26",34.70,21.56,0.00,0.00,
"CA001125852","1990-11-27",42.08,23.36,0.00,0.00,
"CA001125852","1990-11-28",39.92,19.40,0.00,0.00,
"CA001125852","1990-11-29",49.64,26.42,0.00,0.00,
"CA001125852","1990-11-30",44.42,28.04,0.00,0.00,
"CA001125852","1990-12-01",36.86,31.10,20.00,,
"CA001125852","1990-12-02",37.04,23.72,6.00,,
"CA001125852","1990-12-03",42.26,31.64,2.00,,
"CA001125852","1990-12-04",51.98,39.92,2.00,,
"CA001125852","1990-12-05",47.48,30.20,0.00,0.00,
"CA001125852","1990-12-06",43.16,27.32,0.00,0.00,
"CA001125852","1990-12-07",37.76,30.56,0.00,0.00,
"CA001125852","1990-12-08",41.00,31.82,0.00,0.00,
"CA001125852","1990-12-09",38.12,34.34,8.00,,
"CA001125852","1990-12-10",39.92,38.30,6.00,,
"CA001125852","1990-12-11",46.04,23.54,2.00,,
"CA001125852","1990-12-12",34.16,19.22,,0.00,
"CA001125852","1990-12-13",34.88,30.02,,,
"CA001125852","1990-12-14",33.08,29.84,0.00,0.00,
"CA001125852","1990-12-15",35.96,25.34,0.00,0.00,
"CA001125852","1990-12-16",32.36,19.22,0.00,0.00,
"CA001125852","1990-12-17",35.60,28.76,18.00,,
"CA001125852","1990-12-18",37.04,10.76,2.00,,
"CA001125852","1990-12-19",11.84,6.44,0.00,0.00,
"CA001125852","1990-12-20",9.14,2.30,0.00,0.00,
"CA001125852","1990-12-21",5.90,-1.84,0.00,0.00,
"CA001125852","1990-12-22",8.60,2.30,,0.00,
"CA001125852","1990-12-23",14.18,7.16,0.00,0.00,
"CA001125852","1990-12-24",18.50,10.40,0.00,0.00,
"CA001125852","1990-12-25",19.04,11.30,0.00,0.00,
"CA001125852","1990-12-26",19.04,8.42,0.00,0.00,
"CA001125852","1990-12-27",26.06,16.88,,0.00,
"CA001125852","1990-12-28",17.60,-1.48,0.00,0.00,
"CA001125852","1990-12-29",4.82,-14.98,,0.00,
"CA001125852","1990-12-30",9.14,3.02,,0.00,
"CA001125852","1990-12-31",16.34,8.78,,0.00,
"CA001125852","1991-01-01",25.70,14.54,,,
"CA001125852","1991-01-02",27.86,21.74,,,
"CA001125852","1991-01-03",23.72,15.62,,,
"CA001125852","1991-01-04",16.88,12.56,,,
"CA001125852","1991-01-05",13.64,8.24,,,
"CA001125852","1991-01-06",11.48,7.34,,,
"CA001125852","1991-01-07",15.62,10.22,,,
"CA001125852","1991-01-08",19.58,12.74,,,
"CA001125852","1991-01-09",19.94,14.18,,,
"CA001125852","1991-01-10",26.42,17.78,,,
"CA001125852","1991-01-11",35.96,24.44,,,
"CA001125852","1991-01-12",41.00,34.34,,,
"CA001125852","1991-01-13",39.74,24.26,,,
"CA001125852","1991-01-14",43.70,23.36,,,
"CA001125852","1991-01-15",41.90,31.28,,,
"CA001125852","1991-01-16",37.22,31.10,,,
"CA001125852","1991-01-17",38.84,33.44,,,
"CA001125852","1991-01-18",43.88,33.44,,,
"CA001125852","1991-01-19",38.66,24.80,,,
"CA001125852","1991-01-20",33.80,20.30,,,
"CA001125852","1991-01-21",31.82,15.98,,,
"CA001125852","1991-01-22",27.68,10.94,,,
"CA001125852","1991-01-23",27.86,23.00,,,
"CA001125852","1991-01-24",37.22,17.96,,,
"CA001125852","1991-01-25",34.52,17.78,,,
"CA001125852","1991-01-26",30.20,12.38,,,
"CA001125852","1991-01-27",30.92,15.26,,,
"CA001125852","1991-01-28",32.36,13.10,,,
"CA001125852","1991-01-29",26.42,6.44,,,
"CA001125852","1991-01-30",25.52,10.22,,,
"CA001125852","1991-01-31",36.86,21.20,,,
"CA001125852","1991-02-01",42.80,30.92,0.00,,
"CA001125852","1991-02-02",50.90,39.92,4.00,,
"CA001125852","1991-02-03",45.14,32.54,18.00,,
"CA001125852","1991-02-04",49.46,38.84,54.00,,
"CA001125852","1991-02-05",57.56,29.12,10.00,,
"CA001125852","1991-02-06",50.90,29.12,0.00,,
"CA001125852","1991-02-07",46.22,37.22,0.00,,
"CA001125852","1991-02-08",42.98,31.28,4.00,,
"CA001125852","1991-02-09",39.02,29.48,2.00,,
"CA001125852","1991-02-10",41.36,34.16,0.00,,
"CA001125852","1991-02-11",42.98,34.52,0.00,,
"CA001125852","1991-02-12",42.62,32.36,0.00,,
"CA001125852","1991-02-13",44.60,32.72,30.00,,
"CA001125852","1991-02-14",44.24,36.50,4.00,,
"CA001125852","1991-02-15",44.96,39.38,34.00,,
"CA001125852","1991-02-16",52.88,30.38,0.00,,
"CA001125852","1991-02-17",53.24,26.96,0.00,,
"CA001125852","1991-02-18",45.32,25.52,0.00,,
"CA001125852","1991-02-19",59.18,39.92,2.00,,
"CA001125852","1991-02-20",55.58,39.38,0.00,,
"CA001125852","1991-02-21",51.62,24.62,0.00,,
"CA001125852","1991-02-22",54.50,28.22,0.00,,
"CA001125852","1991-02-23",53.24,20.66,0.00,,
"CA001125852","1991-02-24",54.14,23.00,0.00,,
"CA001125852","1991-02-25",55.40,24.98,0.00,,
"CA001125852","1991-02-26",54.86,26.06,0.00,,
"CA001125852","1991-02-27",58.64,23.72,0.00,,
"CA001125852","1991-02-28",42.80,24.26,,,
"CA001125852","1991-03-01",32.18,24.98,,,
"CA001125852","1991-03-02",34.70,27.14,,,
"CA001125852","1991-03-03",45.14,32.18,,,
"CA001125852","1991-03-04",45.68,33.62,0.00,,
"CA001125852","1991-03-05",41.90,21.38,0.00,,
"CA001125852","1991-03-06",48.74,18.50,0.00,,
"CA001125852","1991-03-07",52.70,21.74,0.00,,
"CA001125852","1991-03-08",52.88,22.46,0.00,,
"CA001125852","1991-03-09",55.22,36.50,,,
"CA001125852","1991-03-10",44.24,26.24,,,
"CA001125852","1991-03-11",44.42,18.86,6.00,,
"CA001125852","1991-03-12",49.10,30.56,4.00,,
"CA001125852","1991-03-13",53.42,21.38,0.00,,
"CA001125852","1991-03-14",53.06,34.52,0.00,,
"CA001125852","1991-03-15",50.90,26.96,0.00,,
"CA001125852","1991-03-16",57.20,29.66,0.00,,
"CA001125852","1991-03-17",60.26,21.38,0.00,,
"CA001125852","1991-03-18",62.42,20.84,0.00,,
"CA001125852","1991-03-19",59.54,42.44,,,
"CA001125852","1991-03-20",55.76,34.52,,,
"CA001125852","1991-03-21",60.44,29.48,8.00,,
"CA001125852","1991-03-22",51.98,33.26,0.00,,
"CA001125852","1991-03-23",52.34,29.30,0.00,,
"CA001125852","1991-03-24",53.24,41.00,0.00,,
"CA001125852","1991-03-25",44.42,37.40,0.00,,
"CA001125852","1991-03-26",50.00,33.80,0.00,,
"CA001125852","1991-03-27",60.62,21.74,0.00,,
"CA001125852","1991-03-28",57.56,26.96,0.00,,
"CA001125852","1991-03-29",60.80,30.02,0.00,,
"CA001125852","1991-03-30",68.00,28.58,0.00,,
"CA001125852","1991-03-31",68.54,43.70,0.00,,
"CA001125852","1991-04-01",68.36,41.90,0.00,,
"CA001125852","1991-04-02",60.80,35.60,20.00,,
"CA001125852","1991-04-03",53.24,32.90,12.00,,
"CA001125852","1991-04-04",61.52,47.84,6.00,,
"CA001125852","1991-04-05",63.50,46.04,0.00,,
"CA001125852","1991-04-06",58.46,29.48,0.00,,
"CA001125852","1991-04-07",53.78,28.04,0.00,,
"CA001125852","1991-04-08",56.84,23.90,0.00,,
"CA001125852","1991-04-09",51.98,37.94,40.00,,
"CA001125852","1991-04-10",50.00,31.28,0.00,,
"CA001125852","1991-04-11",62.24,40.64,0.00,,
"CA001125852","1991-04-12",69.08,30.74,0.00,,
"CA001125852","1991-04-13",71.60,31.28,0.00,,
"CA001125852","1991-04-14",59.36,41.18,60.00,,
"CA001125852","1991-04-15",60.08,39.20,4.00,,
"CA001125852","1991-04-16",66.56,35.06,0.00,,
"CA001125852","1991-04-17",71.42,31.82,0.00,,
"CA001125852","1991-04-18",72.68,31.82,0.00,,
"CA001125852","1991-04-19",75.38,33.44,0.00,,
"CA001125852","1991-04-20",77.18,34.34,0.00,,
"CA001125852","1991-04-21",81.86,37.22,0.00,,
"CA001125852","1991-04-22",79.88,42.44,20.00,,
"CA001125852","1991-04-23",71.96,39.38,2.00,,
"CA001125852","1991-04-24",60.80,42.80,76.00,,
"CA001125852","1991-04-25",58.46,35.24,0.00,,
"CA001125852","1991-04-26",61.88,30.02,0.00,,
"CA001125852","1991-04-27",63.68,33.08,0.00,,
"CA001125852","1991-04-28",63.86,35.42,0.00,,
"CA001125852","1991-04-29",66.56,42.26,0.00,,
"CA001125852","1991-04-30",71.42,33.08,0.00,,
"CA001125852","1991-05-01",69.44,38.48,0.00,,
"CA001125852","1991-05-02",70.70,36.14,0.00,,
"CA001125852","1991-05-03",71.78,36.32,0.00,,
"CA001125852","1991-05-04",66.38,44.60,2.00,,
"CA001125852","1991-05-05",63.14,47.84,2.00,,
"CA001125852","1991-05-06",68.00,47.30,0.00,,
"CA001125852","1991-05-07",61.88,44.06,0.00,,
"CA001125852","1991-05-08",53.78,40.82,126.00,,
"CA001125852","1991-05-09",56.66,40.46,80.00,,
"CA001125852","1991-05-10",71.60,44.96,2.00,,
"CA001125852","1991-05-11",78.08,47.30,0.00,,
"CA001125852","1991-05-12",69.62,58.28,0.00,,
"CA001125852","1991-05-13",71.42,43.52,0.00,,
"CA001125852","1991-05-14",70.88,52.34,0.00,,
"CA001125852","1991-05-15",72.86,40.10,0.00,,
"CA001125852","1991-05-16",67.46,44.42,0.00,,
"CA001125852","1991-05-17",67.10,54.14,32.00,,
"CA001125852","1991-05-18",63.14,53.78,46.00,,
"CA001125852","1991-05-19",63.68,48.02,6.00,,
"CA001125852","1991-05-20",78.44,48.20,0.00,,
"CA001125852","1991-05-21",78.44,55.40,0.00,,
"CA001125852","1991-05-22",73.40,53.60,0.00,,
"CA001125852","1991-05-23",72.50,48.20,0.00,,
"CA001125852","1991-05-24",61.34,50.72,70.00,,
"CA001125852","1991-05-25",64.94,41.18,0.00,,
"CA001125852","1991-05-26",71.78,42.98,0.00,,
"CA001125852","1991-05-27",76.64,40.46,0.00,,
"CA001125852","1991-05-28",77.54,44.42,14.00,,
"CA001125852","1991-05-29",74.30,45.86,12.00,,
"CA001125852","1991-05-30",70.34,51.80,10.00,,
"CA001125852","1991-05-31",78.08,50.18,0.00,,
"CA001125852","1991-06-01",83.84,45.32,0.00,,
"CA001125852","1991-06-02",80.78,47.48,0.00,,
"CA001125852","1991-06-03",65.66,49.82,0.00,,
"CA001125852","1991-06-04",69.08,39.02,0.00,,
"CA001125852","1991-06-05",81.14,53.78,0.00,,
"CA001125852","1991-06-06",73.58,54.68,18.00,,
"CA001125852","1991-06-07",67.28,52.16,2.00,,
"CA001125852","1991-06-08",79.88,45.14,0.00,,
"CA001125852","1991-06-09",81.86,51.98,0.00,,
"CA001125852","1991-06-10",78.08,51.62,4.00,,
"CA001125852","1991-06-11",71.42,57.20,0.00,,
"CA001125852","1991-06-12",66.92,46.40,2.00,,
"CA001125852","1991-06-13",70.34,39.38,2.00,,
"CA001125852","1991-06-14",71.24,40.46,0.00,,
"CA001125852","1991-06-15",76.10,50.00,0.00,,
"CA001125852","1991-06-16",63.32,46.76,48.00,,
"CA001125852","1991-06-17",75.92,41.90,0.00,,
"CA001125852","1991-06-18",82.04,54.14,0.00,,
"CA001125852","1991-06-19",79.34,62.06,14.00,,
"CA001125852","1991-06-20",69.08,57.56,156.00,,
"CA001125852","1991-06-21",68.00,52.52,42.00,,
"CA001125852","1991-06-22",75.20,,40.00,,
"CA001125852","1991-06-23",75.92,54.86,0.00,,
"CA001125852","1991-06-24",81.50,48.92,0.00,,
"CA001125852","1991-06-25",78.98,50.72,18.00,,
"CA001125852","1991-06-26",75.74,51.98,0.00,,
"CA001125852","1991-06-27",83.30,50.36,0.00,,
"CA001125852","1991-06-28",87.62,53.06,0.00,,
"CA001125852","1991-06-29",82.40,56.30,8.00,,
"CA001125852","1991-06-30",81.14,59.72,0.00,,
"CA001125852","1991-07-01",87.26,54.14,0.00,,
"CA001125852","1991-07-02",93.74,55.04,0.00,,
"CA001125852","1991-07-03",97.16,59.00,0.00,,
"CA001125852","1991-07-04",89.06,67.82,0.00,,
"CA001125852","1991-07-05",86.54,59.00,0.00,,
"CA001125852","1991-07-06",73.76,60.62,0.00,,
"CA001125852","1991-07-07",87.62,49.64,0.00,,
"CA001125852","1991-07-08",93.56,54.32,0.00,,
"CA001125852","1991-07-09",90.32,55.22,2.00,,
"CA001125852","1991-07-10",88.88,60.62,12.00,,
"CA001125852","1991-07-11",89.96,58.46,0.00,,
"CA001125852","1991-07-12",96.26,58.10,0.00,,
"CA001125852","1991-07-13",87.62,62.96,2.00,,
"CA001125852","1991-07-14",85.28,57.38,0.00,,
"CA001125852","1991-07-15",75.74,61.16,4.00,,
"CA001125852","1991-07-16",70.88,58.82,86.00,,
"CA001125852","1991-07-17",78.80,60.08,0.00,,
"CA001125852","1991-07-18",80.60,56.66,0.00,,
"CA001125852","1991-07-19",84.38,64.76,0.00,,
"CA001125852","1991-07-20",85.82,57.02,0.00,,
"CA001125852","1991-07-21",85.46,57.74,0.00,,
"CA001125852","1991-07-22",89.06,59.36,0.00,,
"CA001125852","1991-07-23",95.54,60.80,0.00,,
"CA001125852","1991-07-24",99.86,,88.00,,
"CA001125852","1991-07-25",84.92,,0.00,,
"CA001125852","1991-07-26",84.74,55.94,0.00,,
"CA001125852","1991-07-27",84.56,59.90,0.00,,
"CA001125852","1991-07-28",90.14,62.60,0.00,,
"CA001125852","1991-07-29",85.10,58.82,0.00,,
"CA001125852","1991-07-30",90.68,57.38,0.00,,
"CA001125852","1991-07-31",93.74,52.88,0.00,,
"CA001125852","1991-08-01",89.96,61.34,0.00,,
"CA001125852","1991-08-02",92.30,54.32,0.00,,
"CA001125852","1991-08-03",97.52,55.94,0.00,,
"CA001125852","1991-08-04",97.16,57.74,0.00,,
"CA001125852","1991-08-05",82.40,63.86,0.00,,
"CA001125852","1991-08-06",86.54,59.18,30.00,,
"CA001125852","1991-08-07",87.80,58.64,0.00,,
"CA001125852","1991-08-08",95.18,66.20,0.00,,
"CA001125852","1991-08-09",88.70,63.32,0.00,,
"CA001125852","1991-08-10",79.52,55.76,34.00,,
"CA001125852","1991-08-11",78.44,50.36,0.00,,
"CA001125852","1991-08-12",70.88,53.60,2.00,,
"CA001125852","1991-08-13",79.34,54.32,8.00,,
"CA001125852","1991-08-14",82.04,60.98,6.00,,
"CA001125852","1991-08-15",91.76,56.48,0.00,,
"CA001125852","1991-08-16",97.88,57.56,0.00,,
"CA001125852","1991-08-17",96.80,60.44,0.00,,
"CA001125852","1991-08-18",94.10,60.62,0.00,,
"CA001125852","1991-08-19",99.32,59.72,0.00,,
"CA001125852","1991-08-20",98.42,61.52,0.00,,
"CA001125852","1991-08-21",101.48,60.08,0.00,,
"CA001125852","1991-08-22",98.96,59.54,0.00,,
"CA001125852","1991-08-23",88.70,72.14,0.00,,
"CA001125852","1991-08-24",80.42,62.96,0.00,,
"CA001125852","1991-08-25",82.04,62.78,0.00,,
"CA001125852","1991-08-26",70.88,48.20,0.00,,
"CA001125852","1991-08-27",67.28,57.92,0.00,,
"CA001125852","1991-08-28",73.40,51.98,2.00,,
"CA001125852","1991-08-29",74.48,59.18,0.00,,
"CA001125852","1991-08-30",89.24,59.90,0.00,,
"CA001125852","1991-08-31",80.78,57.56,0.00,,
"CA001125852","1991-09-01",75.56,59.00,0.00,,
"CA001125852","1991-09-02",75.56,48.02,0.00,,
"CA001125852","1991-09-03",79.52,52.16,0.00,,
"CA001125852","1991-09-04",84.74,50.36,0.00,,
"CA001125852","1991-09-05",92.12,48.92,0.00,,
"CA001125852","1991-09-06",92.30,51.08,0.00,,
"CA001125852","1991-09-07",78.80,66.02,0.00,,
"CA001125852","1991-09-08",71.60,61.34,0.00,,
"CA001125852","1991-09-09",78.80,52.52,0.00,,
"CA001125852","1991-09-10",80.60,47.30,0.00,,
"CA001125852","1991-09-11",85.10,47.12,0.00,,
"CA001125852","1991-09-12",87.08,50.36,0.00,,
"CA001125852","1991-09-13",69.08,52.88,0.00,,
"CA001125852","1991-09-14",77.00,51.98,0.00,,
"CA001125852","1991-09-15",80.96,45.86,0.00,,
"CA001125852","1991-09-16",81.68,47.12,0.00,,
"CA001125852","1991-09-17",79.88,51.98,0.00,,
"CA001125852","1991-09-18",85.46,50.54,0.00,,
"CA001125852","1991-09-19",87.08,47.30,0.00,,
"CA001125852","1991-09-20",72.50,47.48,0.00,,
"CA001125852","1991-09-21",68.18,42.98,0.00,,
"CA001125852","1991-09-22",68.36,35.60,0.00,,
"CA001125852","1991-09-23",75.74,53.42,0.00,,
"CA001125852","1991-09-24",77.36,49.46,0.00,,
"CA001125852","1991-09-25",81.32,47.12,0.00,,
"CA001125852","1991-09-26",82.22,48.74,0.00,,
"CA001125852","1991-09-27",86.90,48.20,0.00,,
"CA001125852","1991-09-28",80.42,48.38,0.00,,
"CA001125852","1991-09-29",78.08,51.08,0.00,,
"CA001125852","1991-09-30",78.80,45.68,0.00,,
"CA001125852","1991-10-01",79.16,49.64,0.00,,
"CA001125852","1991-10-02",74.30,42.62,0.00,,
"CA001125852","1991-10-03",65.66,41.72,0.00,,
"CA001125852","1991-10-04",66.20,33.26,0.00,,
"CA001125852","1991-10-05",73.40,32.90,0.00,,
"CA001125852","1991-10-06",73.94,36.32,0.00,,
"CA001125852","1991-10-07",72.68,37.40,0.00,,
"CA001125852","1991-10-08",72.86,37.58,0.00,,
"CA001125852","1991-10-09",73.40,40.64,0.00,,
"CA001125852","1991-10-10",77.90,39.38,0.00,,
"CA001125852","1991-10-11",80.60,37.04,0.00,,
"CA001125852","1991-10-12",71.96,44.96,0.00,,
"CA001125852","1991-10-13",71.24,36.50,0.00,,
"CA001125852","1991-10-14",75.38,37.58,0.00,,
"CA001125852","1991-10-15",76.64,41.18,0.00,,
"CA001125852","1991-10-16",69.26,50.18,0.00,,
"CA001125852","1991-10-17",56.48,31.64,0.00,,
"CA001125852","1991-10-18",55.04,30.20,0.00,,
"CA001125852","1991-10-19",64.58,36.50,0.00,,
"CA001125852","1991-10-20",64.76,34.34,0.00,,
"CA001125852","1991-10-21",64.76,36.32,0.00,,
"CA001125852","1991-10-22",50.18,40.28,0.00,,
"CA001125852","1991-10-23",48.56,26.96,0.00,,
"CA001125852","1991-10-24",39.38,33.08,52.00,,
"CA001125852","1991-10-25",45.68,30.74,0.00,,
"CA001125852","1991-10-26",44.24,37.94,0.00,,
"CA001125852","1991-10-27",39.20,25.52,0.00,,
"CA001125852","1991-10-28",29.30,16.88,0.00,,
"CA001125852","1991-10-29",37.76,23.54,0.00,,
"CA001125852","1991-10-30",38.30,19.76,0.00,,
"CA001125852","1991-10-31",40.28,29.84,0.00,,
"CA001125852","1991-11-01",41.90,25.88,0.00,,
"CA001125852","1991-11-02",40.10,15.44,0.00,,
"CA001125852","1991-11-03",41.54,29.30,0.00,,
"CA001125852","1991-11-04",42.08,33.80,4.00,,
"CA001125852","1991-11-05",41.00,33.80,50.00,,
"CA001125852","1991-11-06",46.58,36.14,0.00,,
"CA001125852","1991-11-07",45.86,39.20,10.00,,
"CA001125852","1991-11-08",46.22,43.52,4.00,,
"CA001125852","1991-11-09",46.40,41.72,2.00,,
"CA001125852","1991-11-10",49.82,43.52,0.00,,
"CA001125852","1991-11-11",48.20,44.78,4.00,,
"CA001125852","1991-11-12",56.66,33.08,4.00,,
"CA001125852","1991-11-13",56.66,30.74,0.00,,
"CA001125852","1991-11-14",52.16,27.32,2.00,,
"CA001125852","1991-11-15",39.92,23.54,0.00,,
"CA001125852","1991-11-16",40.82,33.26,86.00,,
"CA001125852","1991-11-17",50.90,34.34,80.00,,
"CA001125852","1991-11-18",43.88,34.34,0.00,,
"CA001125852","1991-11-19",41.72,37.76,110.00,,
"CA001125852","1991-11-20",50.90,30.74,36.00,,
"CA001125852","1991-11-21",,,2.00,,
"CA001125852","1991-11-22",41.54,,2.00,,
"CA001125852","1991-11-23",40.46,,0.00,,
"CA001125852","1991-11-24",38.12,35.60,4.00,,
"CA001125852","1991-11-25",42.62,37.22,6.00,,
"CA001125852","1991-11-26",39.56,32.90,36.00,,
"CA001125852","1991-11-27",46.22,27.14,30.00,,
"CA001125852","1991-11-28",41.90,26.06,16.00,,
"CA001125852","1991-11-29",42.44,23.72,0.00,,
"CA001125852","1991-11-30",36.86,21.74,0.00,,
"CA001125852","1991-12-01",37.58,28.22,0.00,,
"CA001125852","1991-12-02",41.54,31.64,14.00,,
"CA001125852","1991-12-03",39.38,33.08,0.00,,
"CA001125852","1991-12-04",44.60,36.68,4.00,,
"CA001125852","1991-12-05",46.76,37.94,2.00,,
"CA001125852","1991-12-06",46.04,31.46,14.00,,
"CA001125852","1991-12-07",43.88,26.24,2.00,,
"CA001125852","1991-12-08",46.94,35.06,4.00,,
"CA001125852","1991-12-09",49.82,40.46,2.00,,
"CA001125852","1991-12-10",46.58,24.62,0.00,,
"CA001125852","1991-12-11",44.60,27.86,0.00,,
"CA001125852","1991-12-12",43.52,29.84,20.00,,
"CA001125852","1991-12-13",39.92,25.16,0.00,,
"CA001125852","1991-12-14",35.06,20.30,4.00,,
"CA001125852","1991-12-15",32.18,18.32,0.00,,
"CA001125852","1991-12-16",34.34,16.70,0.00,,